When you browse on this site, cookies collect data to enhance your experience and personalize the content and advertising you see.
Visit our Privacy Policy to learn more. By continuing to use the site, you agree to this use of cookies and data.
  • In Austria
  • List of Countries
  • For 7 days
  • Water Temperature
  • Satellite Maps
  • Weather Map
  • News
  • Weather Widgets
  • user-avatar
    Login

    Hourly Weather Abovyan

    Today, 20 June, Thursday

    Time Temperature Precipitation Wind Pressure Humidity
    00:00 +21°C° 0.5 mm 1 mps 670 mmHg 71%
    01:00 +21°C° 0.2 mm 1 mps 670 mmHg 72%
    02:00 +20°C° 0.2 mm 1 mps 669 mmHg 72%
    03:00 +20°C° 0 mm 1 mps 669 mmHg 72%
    04:00 +20°C° 0.2 mm 1 mps 669 mmHg 70%
    05:00 +21°C° 0.2 mm 1 mps 669 mmHg 68%
    06:00 +22°C° 0.2 mm 1 mps 670 mmHg 66%
    07:00 +23°C° 0.3 mm 1 mps 670 mmHg 61%
    08:00 +25°C° 0.3 mm 1 mps 669 mmHg 57%
    09:00 +26°C° 0 mm 1 mps 670 mmHg 52%
    10:00 +27°C° 0.4 mm 2 mps 670 mmHg 49%
    11:00 +28°C° 0.4 mm 2 mps 670 mmHg 45%
    12:00 +29°C° 0.4 mm 2 mps 670 mmHg 41%
    13:00 +30°C° 0.2 mm 2 mps 669 mmHg 39%
    14:00 +30°C° 0.2 mm 2 mps 669 mmHg 36%
    15:00 +31°C° 0 mm 2 mps 669 mmHg 33%
    16:00 +30°C° 0.1 mm 2 mps 669 mmHg 36%
    17:00 +30°C° 0.1 mm 3 mps 669 mmHg 38%
    18:00 +29°C° 0.1 mm 3 mps 669 mmHg 41%
    19:00 +27°C° 0.4 mm 3 mps 669 mmHg 48%
    20:00 +25°C° 0.4 mm 3 mps 669 mmHg 55%
    21:00 +22°C° 0.4 mm 3 mps 669 mmHg 62%
    22:00 +21°C° 0.4 mm 3 mps 669 mmHg 66%
    23:00 +20°C° 0.4 mm 3 mps 669 mmHg 70%

    Tomorrow, 21 June, Friday

    Time Temperature Precipitation Wind Pressure Humidity
    00:00 +19°C° 0.4 mm 3 mps 669 mmHg 74%
    01:00 +19°C° 0.4 mm 2 mps 669 mmHg 75%
    02:00 +18°C° 0.4 mm 2 mps 669 mmHg 76%
    03:00 +19°C° 0.4 mm 1 mps 668 mmHg 77%
    04:00 +20°C° 0.1 mm 1 mps 669 mmHg 75%
    05:00 +18°C° 0.1 mm 0 mps 669 mmHg 72%
    06:00 +19°C° 0.1 mm 0 mps 669 mmHg 70%
    07:00 +22°C° 0.3 mm 1 mps 669 mmHg 65%
    08:00 +23°C° 0.3 mm 1 mps 669 mmHg 60%
    09:00 +25°C° 0.3 mm 1 mps 669 mmHg 55%
    10:00 +26°C° 0.7 mm 1 mps 669 mmHg 51%
    11:00 +27°C° 0.7 mm 1 mps 669 mmHg 47%
    12:00 +29°C° 0.7 mm 1 mps 669 mmHg 42%
    13:00 +29°C° 0.4 mm 1 mps 669 mmHg 40%
    14:00 +30°C° 0.4 mm 1 mps 670 mmHg 39%
    15:00 +30°C° 0.4 mm 1 mps 670 mmHg 37%
    16:00 +30°C° 0.3 mm 2 mps 670 mmHg 40%
    17:00 +29°C° 0.3 mm 2 mps 670 mmHg 43%
    18:00 +28°C° 0.3 mm 3 mps 670 mmHg 46%
    19:00 +26°C° 0.3 mm 3 mps 670 mmHg 51%
    20:00 +24°C° 0.3 mm 2 mps 670 mmHg 57%
    21:00 +21°C° 0.3 mm 2 mps 670 mmHg 62%
    22:00 +21°C° 0.1 mm 2 mps 670 mmHg 64%
    23:00 +21°C° 0.1 mm 1 mps 670 mmHg 65%

    Day after tomorrow, 22 June, Saturday

    Time Temperature Precipitation Wind Pressure Humidity
    00:00 +21°C° 0.1 mm 1 mps 670 mmHg 67%
    01:00 +20°C° 0 mm 1 mps 670 mmHg 68%
    02:00 +20°C° 0 mm 1 mps 670 mmHg 69%
    03:00 +19°C° 0 mm 1 mps 670 mmHg 69%
    04:00 +20°C° 0 mm 1 mps 670 mmHg 68%
    05:00 +21°C° 0 mm 1 mps 671 mmHg 67%
    06:00 +22°C° 0 mm 1 mps 671 mmHg 65%
    07:00 +23°C° 0 mm 1 mps 671 mmHg 60%
    08:00 +25°C° 0 mm 1 mps 672 mmHg 55%
    09:00 +26°C° 0 mm 1 mps 672 mmHg 50%
    10:00 +28°C° 0.2 mm 2 mps 672 mmHg 47%
    11:00 +29°C° 0.2 mm 2 mps 672 mmHg 44%
    12:00 +30°C° 0.2 mm 2 mps 672 mmHg 41%
    13:00 +30°C° 0.2 mm 2 mps 672 mmHg 39%
    14:00 +31°C° 0.2 mm 2 mps 672 mmHg 37%
    15:00 +32°C° 0.2 mm 2 mps 672 mmHg 35%
    16:00 +31°C° 0.1 mm 2 mps 672 mmHg 38%
    17:00 +31°C° 0.1 mm 3 mps 672 mmHg 40%
    18:00 +30°C° 0.1 mm 3 mps 671 mmHg 42%
    19:00 +28°C° 0.1 mm 3 mps 672 mmHg 46%
    20:00 +26°C° 0.1 mm 3 mps 672 mmHg 49%
    21:00 +25°C° 0.1 mm 3 mps 672 mmHg 53%
    22:00 +24°C° 0.3 mm 3 mps 672 mmHg 57%
    23:00 +23°C° 0.3 mm 2 mps 672 mmHg 62%

    23 June, Sunday

    Time Temperature Precipitation Wind Pressure Humidity
    00:00 +22°C° 0.3 mm 1 mps 672 mmHg 66%
    01:00 +21°C° 0.1 mm 1 mps 672 mmHg 67%
    02:00 +21°C° 0.1 mm 1 mps 671 mmHg 68%
    03:00 +21°C° 0.1 mm 1 mps 671 mmHg 69%
    04:00 +22°C° 0 mm 1 mps 672 mmHg 68%
    05:00 +22°C° 0 mm 1 mps 672 mmHg 66%
    06:00 +23°C° 0 mm 1 mps 672 mmHg 64%
    07:00 +25°C° 0 mm 1 mps 673 mmHg 59%
    08:00 +26°C° 0 mm 1 mps 673 mmHg 54%
    09:00 +28°C° 0 mm 1 mps 673 mmHg 49%
    10:00 +29°C° 0.1 mm 1 mps 673 mmHg 45%
    11:00 +31°C° 0.1 mm 2 mps 673 mmHg 41%
    12:00 +32°C° 0.1 mm 2 mps 673 mmHg 37%
    13:00 +34°C° 0 mm 2 mps 673 mmHg 35%
    14:00 +34°C° 0 mm 2 mps 673 mmHg 32%
    15:00 +35°C° 0 mm 2 mps 673 mmHg 30%
    16:00 +35°C° 0 mm 2 mps 673 mmHg 33%
    17:00 +34°C° 0 mm 3 mps 673 mmHg 37%
    18:00 +33°C° 0 mm 3 mps 672 mmHg 40%
    19:00 +30°C° 0 mm 3 mps 672 mmHg 43%
    20:00 +28°C° 0 mm 3 mps 672 mmHg 46%
    21:00 +26°C° 0 mm 3 mps 672 mmHg 49%
    22:00 +26°C° 0 mm 3 mps 672 mmHg 51%
    23:00 +25°C° 0 mm 2 mps 672 mmHg 53%

    24 June, Monday

    Time Temperature Precipitation Wind Pressure Humidity
    00:00 +24°C° 0 mm 2 mps 672 mmHg 55%
    01:00 +23°C° 0 mm 2 mps 672 mmHg 56%
    02:00 +23°C° 0 mm 2 mps 672 mmHg 58%
    03:00 +23°C° 0 mm 2 mps 672 mmHg 60%
    04:00 +23°C° 0 mm 2 mps 672 mmHg 59%
    05:00 +24°C° 0 mm 1 mps 672 mmHg 59%
    06:00 +25°C° 0 mm 1 mps 672 mmHg 58%
    07:00 +26°C° 0 mm 1 mps 673 mmHg 53%
    08:00 +28°C° 0 mm 1 mps 673 mmHg 48%
    09:00 +30°C° 0 mm 1 mps 673 mmHg 43%
    10:00 +31°C° 0 mm 1 mps 673 mmHg 40%
    11:00 +34°C° 0 mm 2 mps 673 mmHg 37%
    12:00 +35°C° 0 mm 2 mps 673 mmHg 34%
    13:00 +35°C° 0 mm 2 mps 673 mmHg 32%
    14:00 +36°C° 0 mm 2 mps 673 mmHg 29%
    15:00 +37°C° 0 mm 2 mps 673 mmHg 27%
    16:00 +36°C° 0 mm 2 mps 672 mmHg 30%
    17:00 +35°C° 0 mm 2 mps 672 mmHg 34%
    18:00 +35°C° 0 mm 3 mps 672 mmHg 38%
    19:00 +33°C° 0.1 mm 3 mps 672 mmHg 42%
    20:00 +29°C° 0.1 mm 3 mps 672 mmHg 47%
    21:00 +27°C° 0.1 mm 3 mps 672 mmHg 51%
    22:00 +26°C° 0.1 mm 3 mps 672 mmHg 54%
    23:00 +25°C° 0.1 mm 2 mps 672 mmHg 56%

    25 June, Tuesday

    Time Temperature Precipitation Wind Pressure Humidity
    00:00 +24°C° 0.1 mm 2 mps 672 mmHg 59%
    01:00 +24°C° 0 mm 2 mps 672 mmHg 60%
    02:00 +23°C° 0 mm 2 mps 672 mmHg 61%
    03:00 +23°C° 0 mm 2 mps 672 mmHg 62%
    04:00 +23°C° 0 mm 2 mps 672 mmHg 61%
    05:00 +24°C° 0 mm 2 mps 672 mmHg 60%
    06:00 +25°C° 0 mm 1 mps 672 mmHg 58%
    07:00 +27°C° 0 mm 1 mps 673 mmHg 53%
    08:00 +29°C° 0 mm 1 mps 673 mmHg 48%
    09:00 +30°C° 0 mm 1 mps 673 mmHg 42%
    10:00 +32°C° 0 mm 1 mps 673 mmHg 39%
    11:00 +33°C° 0 mm 1 mps 674 mmHg 36%
    12:00 +34°C° 0 mm 1 mps 674 mmHg 32%
    13:00 +35°C° 0.1 mm 1 mps 673 mmHg 31%
    14:00 +35°C° 0.1 mm 1 mps 673 mmHg 29%
    15:00 +36°C° 0.1 mm 1 mps 673 mmHg 27%
    16:00 +36°C° 0 mm 2 mps 673 mmHg 31%
    17:00 +35°C° 0 mm 3 mps 673 mmHg 35%
    18:00 +34°C° 0 mm 4 mps 672 mmHg 39%
    19:00 +32°C° 0 mm 4 mps 672 mmHg 42%
    20:00 +29°C° 0 mm 4 mps 672 mmHg 46%
    21:00 +27°C° 0 mm 3 mps 672 mmHg 49%
    22:00 +26°C° 0 mm 3 mps 672 mmHg 50%
    23:00 +26°C° 0 mm 2 mps 672 mmHg 50%
    Show more